This is the latest recevied weather packets stored in our database for station/object WX7FGZ-6. If no packets are shown the sender has not sent any weather packets the latest 10 day(s).
| Time | Temp. | Humidity | Pressure | Rain* | Wind** | Luminosity | Snow |
|---|---|---|---|---|---|---|---|
| 1777350006 | -5° C | 66% | 1015.1 hPa | 0 mm | - | - | - |
| 1777349707 | -5° C | 65% | 1015 hPa | 0 mm | - | - | - |
| 1777349107 | -5° C | 62% | 1014.8 hPa | 0 mm | - | - | - |
| 1777348807 | -4.44° C | 61% | 1014.8 hPa | 0 mm | - | - | - |
| 1777348507 | -4.44° C | 62% | 1014.7 hPa | 0 mm | - | - | - |
| 1777348206 | -4.44° C | 61% | 1014.6 hPa | 0 mm | - | - | - |
| 1777347906 | -4.44° C | 62% | 1014.6 hPa | 0 mm | - | - | - |
| 1777347607 | -4.44° C | 61% | 1014.3 hPa | 0 mm | - | - | - |
| 1777347308 | -4.44° C | 60% | 1014.2 hPa | 0 mm | - | - | - |
| 1777346772 | -4.44° C | 59% | 1014.3 hPa | 0 mm | - | - | - |
| 1777346473 | -4.44° C | 59% | 1014.3 hPa | 0 mm | - | - | - |
| 1777346172 | -4.44° C | 58% | 1014.1 hPa | 0 mm | - | - | - |
| 1777345872 | -4.44° C | 58% | 1014.1 hPa | 0 mm | - | - | - |
| 1777345572 | -3.89° C | 58% | 1014.1 hPa | 0 mm | - | - | - |
| 1777345273 | -3.89° C | 58% | 1013.8 hPa | 0 mm | - | - | - |
| 1777344972 | -3.89° C | 57% | 1013.8 hPa | 0 mm | - | - | - |
| 1777344672 | -3.89° C | 58% | 1013.9 hPa | 0 mm | - | - | - |
| 1777344372 | -3.89° C | 58% | 1014 hPa | 0 mm | - | - | - |
| 1777344072 | -3.89° C | 58% | 1013.7 hPa | 0 mm | - | - | - |
| 1777343774 | -3.89° C | 57% | 1013.7 hPa | 0 mm | - | - | - |
| 1777343472 | -3.89° C | 62% | 1013.7 hPa | 0 mm | - | - | - |
| 1777343144 | -3.89° C | 58% | 1013.8 hPa | 0 mm | - | - | - |
| 1777342845 | -3.33° C | 58% | 1013.9 hPa | 0 mm | - | - | - |
| 1777342545 | -3.33° C | 57% | 1013.7 hPa | 0 mm | - | - | - |
| 1777342245 | -3.33° C | 56% | 1013.8 hPa | 0.25 mm | - | - | - |
* Rain latest hour (hover to see other rain measurements)
** Current wind speed in m/s (hover to see current wind gust speed)